FW0683 Weather Reports


time (UTC)temp
C
wind
direction
speed
KPH
gust
KPH
rain 1hr
cm
rain 24hr
cm
rain mn
cm
humidity
%
barometer
mb
20260905233010 16 95 0.0 0.0 0.00 0.10 0.10 91 1016.1
20260905231510 17 95 0.0 0.0 0.00 0.10 0.10 91 1016.2
20260905230014 17 95 0.0 0.0 0.00 0.10 0.10 90 1016.2
20260905224520 17 95 0.0 0.0 0.00 0.10 0.10 90 1016.2
20260905223008 17 95 0.0 0.0 0.00 0.10 0.10 90 1016.0
20260905221506 17 95 0.0 0.0 0.00 0.10 0.10 89 1015.9
20260905220005 18 95 0.0 0.0 0.00 0.10 0.10 88 1015.6
20260905214502 18 95 0.0 0.0 0.00 0.10 0.10 87 1015.3
20260905213001 18 95 0.0 0.0 0.00 0.10 0.10 87 1015.4
20260905211501 18 102 0.0 0.0 0.00 0.10 0.10 88 1015.4
20260905210100 18 91 0.0 0.0 0.00 0.10 0.10 89 1015.2
20260905204603 18 94 0.0 0.0 0.00 0.10 0.10 88 1015.0
20260905203101 18 93 0.0 0.0 0.00 0.10 0.10 89 1015.1
20260905201558 18 89 0.0 0.0 0.00 0.10 0.10 88 1015.0
20260905200105 18 86 0.0 0.0 0.03 0.10 0.10 90 1014.9
20260905194556 18 96 0.0 0.0 0.10 0.10 0.10 91 1014.9
20260905193107 17 58 0.0 0.0 0.10 0.10 0.10 90 1014.8
20260905191559 17 85 0.0 0.0 0.10 0.10 0.10 89 1014.9
20260905190059 18 75 0.0 0.0 0.08 0.08 0.08 87 1014.9
20260905184552 20 304 0.0 0.0 0.00 0.00 0.00 79 1014.9
20260905183056 21 338 0.0 0.0 0.00 0.00 0.00 74 1014.4
20260905181550 21 325 0.0 0.0 0.00 0.00 0.00 76 1014.2
20260905180053 21 61 0.0 0.0 0.00 0.00 0.00 74 1014.3
20260905174548 21 106 0.0 0.0 0.00 0.00 0.00 73 1014.3
20260905173050 21 83 0.0 0.0 0.00 0.00 0.00 76 1014.4
20260905171546 20 330 0.0 0.0 0.00 0.00 0.00 80 1014.3
20260905170052 20 241 0.0 0.0 0.00 0.00 0.00 84 1014.5
20260905164545 20 336 0.0 0.0 0.00 0.00 0.00 83 1014.6
20260905163043 21 69 0.0 0.0 0.00 0.00 0.00 75 1014.4
20260905161542 20 25 0.0 0.0 0.00 0.00 0.00 74 1014.4
20260905160047 20 245 0.0 0.0 0.00 0.00 0.00 74 1014.5
20260905154542 20 94 0.0 0.0 0.00 0.00 0.00 75 1014.2
20260905153040 21 39 0.0 0.0 0.00 0.00 0.00 75 1014.3
20260905151542 20 66 0.0 0.0 0.00 0.00 0.00 77 1014.4
20260905150039 20 80 0.0 0.0 0.00 0.00 0.00 76 1014.4
20260905144545 20 343 0.0 0.0 0.00 0.00 0.00 75 1014.3
20260905143048 20 77 0.0 0.0 0.00 0.00 0.00 79 1014.3
20260905141534 20 334 0.0 0.0 0.00 0.00 0.00 79 1014.3
20260905140032 20 98 0.0 0.0 0.00 0.00 0.00 78 1014.2
20260905134531 20 335 0.0 0.0 0.00 0.00 0.00 79 1013.9
20260905133029 20 134 0.0 0.0 0.00 0.00 0.00 78 1013.8
20260905131541 20 71 0.0 0.0 0.00 0.00 0.00 81 1013.6
20260905130025 19 224 0.0 0.0 0.00 0.00 0.00 83 1013.6
20260905124519 18 98 0.0 0.0 0.00 0.00 0.00 88 1013.5
20260905123017 17 98 0.0 0.0 0.00 0.00 0.00 92 1013.4
20260905121514 17 154 0.0 0.0 0.00 0.00 0.00 94 1013.4
20260905120011 16 154 0.0 0.0 0.00 0.00 0.00 94 1013.3
20260905114510 16 154 0.0 0.0 0.00 0.00 0.00 94 1013.4
20260905113008 15 154 0.0 0.0 0.00 0.00 0.00 95 1013.1
20260905111507 15 154 0.0 0.0 0.00 0.00 0.00 95 1012.9
20260905110005 15 154 0.0 0.0 0.00 0.00 0.00 95 1012.7
20260905104503 14 154 0.0 0.0 0.00 0.00 0.00 94 1012.6
20260905103008 14 154 0.0 0.0 0.00 0.00 0.00 94 1012.5
20260905101504 13 154 0.0 0.0 0.00 0.00 0.00 94 1012.2
20260905100002 13 154 0.0 0.0 0.00 0.03 0.00 94 1012.2
20260905094503 13 154 0.0 0.0 0.00 0.03 0.00 94 1012.1
20260905093103 14 154 0.0 0.0 0.00 0.03 0.00 94 1012.2
20260905091605 14 154 0.0 0.0 0.00 0.03 0.00 94 1011.9
20260905090100 14 154 0.0 0.0 0.00 0.03 0.00 94 1011.9
20260905084558 14 154 0.0 0.0 0.00 0.03 0.00 94 1011.9
20260905083058 14 154 0.0 0.0 0.00 0.03 0.00 94 1011.9
20260905081604 14 154 0.0 0.0 0.00 0.03 0.00 94 1011.9
20260905074555 14 154 0.0 0.0 0.00 0.03 0.00 94 1011.9
20260905073055 14 154 0.0 0.0 0.00 0.03 0.00 93 1011.9
20260905071556 14 154 0.0 0.0 0.00 0.03 0.00 93 1012.0
20260905070053 14 154 0.0 0.0 0.00 0.03 0.00 93 1011.9
20260905064551 15 154 0.0 0.0 0.00 0.03 0.00 93 1012.1
20260905063100 15 154 0.0 0.0 0.00 0.03 0.00 93 1012.0
20260905061607 15 154 0.0 0.0 0.00 0.03 0.00 93 1012.2
20260905060047 15 154 0.0 0.0 0.00 0.03 0.00 93 1012.3
20260905054547 15 154 0.0 0.0 0.00 0.03 0.00 92 1012.3
20260905053053 15 154 0.0 0.0 0.00 0.03 0.00 92 1012.2
20260905051546 15 154 0.0 0.0 0.00 0.03 0.00 92 1012.3
20260905050044 15 154 0.0 0.0 0.00 0.03 0.00 92 1012.2
20260905044542 15 154 0.0 0.0 0.00 0.03 0.00 91 1012.3
20260905043041 16 154 0.0 0.0 0.00 0.03 0.00 91 1012.4
20260905041538 16 154 0.0 0.0 0.00 0.03 0.00 91 1012.3
20260905040036 16 154 0.0 0.0 0.00 0.03 0.03 91 1012.3
20260905034534 16 154 0.0 0.0 0.00 0.03 0.03 91 1012.4
20260905033035 16 154 0.0 0.0 0.00 0.03 0.03 90 1012.4
20260905031532 17 154 0.0 0.0 0.00 0.03 0.03 89 1012.4
20260905030036 17 154 0.0 0.0 0.00 0.64 0.03 89 1012.5
20260905024533 17 154 0.0 0.0 0.00 0.64 0.03 88 1012.5
20260905023029 17 154 0.0 0.0 0.00 0.64 0.03 88 1012.6
20260905021529 17 154 0.0 0.0 0.00 0.64 0.03 88 1012.7
20260905020049 17 154 0.0 0.0 0.00 0.64 0.03 87 1012.6
20260905014526 17 154 0.0 0.0 0.00 0.64 0.03 90 1012.8
20260905013035 17 154 0.0 0.0 0.00 0.64 0.03 90 1013.0
20260905011525 17 154 0.0 0.0 0.00 0.64 0.03 89 1012.9
20260905010024 17 154 0.0 0.0 0.00 0.64 0.03 89 1012.9
20260905004524 17 154 0.0 0.0 0.00 0.64 0.03 88 1012.8
20260905003023 18 154 0.0 0.0 0.00 0.64 0.03 88 1012.9
20260905001523 18 154 0.0 0.0 0.00 0.64 0.03 87 1012.8
20260905000023 18 154 0.0 0.0 0.00 0.64 0.03 86 1012.7
20260904234522 18 154 0.0 0.0 0.00 0.64 0.03 84 1012.5